This is the latest recevied weather packets stored in our database for station/object VE6KEE-13. If no packets are shown the sender has not sent any weather packets the latest 10 day(s).
| Time | Temp. | Humidity | Pressure | Rain* | Wind** | Luminosity | Snow |
|---|---|---|---|---|---|---|---|
| 1777408953 | 16.11° C | 24% | 1017.8 hPa | 0 mm | - | - | - |
| 1777408057 | 14.44° C | 24% | 1017.9 hPa | 0 mm | - | - | - |
| 1777407152 | 13.89° C | 23% | 1018 hPa | 0 mm | - | - | - |
| 1777406247 | 13.89° C | 24% | 1017.9 hPa | 0 mm | - | - | - |
| 1777405347 | 13.89° C | 25% | 1017.9 hPa | 0 mm | - | - | - |
| 1777404447 | 13.33° C | 24% | 1018 hPa | 0 mm | - | - | - |
| 1777403552 | 13.33° C | 24% | 1018.1 hPa | 0 mm | - | - | - |
| 1777402652 | 13.33° C | 26% | 1018.2 hPa | 0 mm | - | - | - |
| 1777401747 | 12.78° C | 25% | 1018.1 hPa | 0 mm | - | - | - |
| 1777400847 | 12.78° C | 27% | 1018.1 hPa | 0 mm | - | - | - |
| 1777399943 | 12.78° C | 26% | 1018.2 hPa | 0 mm | - | - | - |
| 1777399041 | 13.33° C | 28% | 1018.2 hPa | 0 mm | - | - | - |
| 1777398141 | 13.33° C | 26% | 1018.4 hPa | 0 mm | - | - | - |
| 1777397246 | 13.33° C | 26% | 1018.3 hPa | 0 mm | - | - | - |
| 1777396341 | 13.33° C | 27% | 1018.3 hPa | 0 mm | - | - | - |
| 1777395439 | 12.78° C | 29% | 1018.3 hPa | 0 mm | - | - | - |
| 1777394541 | 12.22° C | 30% | 1018.3 hPa | 0 mm | - | - | - |
| 1777393637 | 11.67° C | 30% | 1018.3 hPa | 0 mm | - | - | - |
| 1777392737 | 11.11° C | 34% | 1018.2 hPa | 0 mm | - | - | - |
| 1777391840 | 10° C | 35% | 1018.3 hPa | 0 mm | - | - | - |
| 1777390935 | 8.89° C | 36% | 1018.5 hPa | 0 mm | - | - | - |
| 1777390034 | 8.33° C | 39% | 1018.5 hPa | 0 mm | - | - | - |
| 1777389134 | 7.22° C | 40% | 1018.7 hPa | 0 mm | - | - | - |
| 1777388233 | 6.11° C | 44% | 1018.7 hPa | 0 mm | - | - | - |
| 1777387332 | 4.44° C | 48% | 1018.8 hPa | 0 mm | - | - | - |
* Rain since midnight (hover to see other rain measurements)
** Current wind speed in m/s (hover to see current wind gust speed)